Time,TemperatureF,DewpointF,PressureIn,WindDirection,WindDirectionDegrees,WindSpeedMPH,WindSpeedGustMPH,Humidity,HourlyPrecipIn,Conditions,Clouds,dailyrainin,SoftwareType,DateUTC
2013-03-06 00:00:00,25.0,16.3,30.00,NNE,21,0.0,0.0,69,0.00,,OVC034,0.00,VWS V14.01,2013-03-06 05:00:00,
2013-03-06 00:05:00,25.0,16.3,30.00,North,359,0.0,0.0,69,0.00,,OVC050,0.00,VWS V14.01,2013-03-06 05:05:00,
2013-03-06 00:10:00,25.0,16.6,30.00,North,359,0.0,0.0,70,0.00,,OVC050,0.00,VWS V14.01,2013-03-06 05:10:00,
2013-03-06 00:15:00,25.0,16.6,30.00,North,359,0.0,0.0,70,0.00,,OVC050,0.00,VWS V14.01,2013-03-06 05:15:00,
2013-03-06 00:20:00,25.0,16.6,30.00,North,359,0.0,0.0,70,0.00,,OVC050,0.00,VWS V14.01,2013-03-06 05:20:00,
2013-03-06 00:25:00,25.0,16.6,30.00,NNE,13,0.0,0.0,70,0.00,,OVC050,0.00,VWS V14.01,2013-03-06 05:25:00,
2013-03-06 00:30:00,25.0,17.3,30.00,NNE,13,0.0,0.0,72,0.00,,OVC050,0.00,VWS V14.01,2013-03-06 05:30:00,
2013-03-06 00:35:00,25.1,17.4,30.00,NNE,23,0.0,0.0,72,0.00,,OVC050,0.00,VWS V14.01,2013-03-06 05:35:00,
2013-03-06 00:41:00,25.4,17.3,30.00,NNE,16,0.0,0.0,71,0.00,,OVC050,0.00,VWS V14.01,2013-03-06 05:41:00,
2013-03-06 00:45:00,25.7,17.6,30.00,NNE,21,0.0,0.0,71,0.00,,OVC050,0.00,VWS V14.01,2013-03-06 05:45:00,
2013-03-06 00:51:00,25.8,17.7,30.00,North,0,0.0,0.0,71,0.00,,OVC050,0.00,VWS V14.01,2013-03-06 05:51:00,
2013-03-06 00:56:00,26.0,17.9,30.00,North,359,0.0,0.0,71,0.00,,OVC050,0.00,VWS V14.01,2013-03-06 05:56:00,
2013-03-06 01:01:00,26.1,18.3,30.00,North,359,0.0,3.0,72,0.00,,OVC050,0.00,VWS V14.01,2013-03-06 06:01:00,
2013-03-06 01:06:00,26.1,18.3,30.00,NNE,18,0.0,0.0,72,0.00,,OVC050,0.00,VWS V14.01,2013-03-06 06:06:00,
2013-03-06 01:11:00,26.1,18.0,30.00,NE,35,2.0,2.0,71,0.00,,OVC050,0.00,VWS V14.01,2013-03-06 06:11:00,
2013-03-06 01:16:00,27.3,19.1,30.00,NNE,13,0.0,0.0,71,0.00,,OVC050,0.00,VWS V14.01,2013-03-06 06:16:00,
2013-03-06 01:21:00,27.6,19.4,30.00,North,0,2.0,2.0,71,0.00,,OVC048,0.00,VWS V14.01,2013-03-06 06:21:00,
2013-03-06 01:26:00,27.8,19.6,30.00,NE,40,5.0,5.0,71,0.00,,OVC048,0.00,VWS V14.01,2013-03-06 06:26:00,
2013-03-06 01:31:00,27.8,19.6,30.01,NNE,32,3.0,3.0,71,0.00,,OVC048,0.00,VWS V14.01,2013-03-06 06:31:00,
2013-03-06 01:36:00,27.9,19.7,30.01,NNE,32,7.0,7.0,71,0.00,,OVC048,0.00,VWS V14.01,2013-03-06 06:36:00,
2013-03-06 01:41:00,27.9,19.7,30.01,NNE,32,8.0,8.0,71,0.00,,OVC048,0.00,VWS V14.01,2013-03-06 06:41:00,
2013-03-06 01:46:00,28.1,19.3,30.01,NNE,14,6.0,6.0,69,0.00,,OVC048,0.00,VWS V14.01,2013-03-06 06:46:00,
2013-03-06 01:51:00,28.1,19.3,30.01,NNE,17,7.0,7.0,69,0.00,,OVC048,0.00,VWS V14.01,2013-03-06 06:51:00,
2013-03-06 01:56:00,28.2,19.7,30.01,NNE,31,5.0,5.0,70,0.00,,OVC048,0.00,VWS V14.01,2013-03-06 06:56:00,
2013-03-06 02:01:00,28.4,19.9,30.01,NNE,14,0.0,5.0,70,0.00,,OVC048,0.00,VWS V14.01,2013-03-06 07:01:00,
2013-03-06 02:07:00,28.4,19.9,30.01,NNE,30,7.0,7.0,70,0.00,,OVC048,0.00,VWS V14.01,2013-03-06 07:07:00,
2013-03-06 02:12:00,28.4,19.9,30.01,North,6,0.0,2.0,70,0.00,,OVC048,0.00,VWS V14.01,2013-03-06 07:12:00,
2013-03-06 02:17:00,28.4,19.9,30.02,NNE,18,7.0,7.0,70,0.00,,OVC048,0.00,VWS V14.01,2013-03-06 07:17:00,
2013-03-06 02:22:00,28.5,20.0,30.02,North,4,5.0,5.0,70,0.00,,OVC050,0.00,VWS V14.01,2013-03-06 07:22:00,
2013-03-06 02:27:00,28.4,19.9,30.02,North,1,0.0,0.0,70,0.00,,OVC050,0.00,VWS V14.01,2013-03-06 07:27:00,
2013-03-06 02:32:00,28.4,19.9,30.02,NNE,28,7.0,7.0,70,0.00,,OVC050,0.00,VWS V14.01,2013-03-06 07:32:00,
2013-03-06 02:37:00,28.5,20.0,30.02,NE,52,8.0,8.0,70,0.00,,OVC050,0.00,VWS V14.01,2013-03-06 07:37:00,
2013-03-06 02:42:00,28.5,20.6,30.02,NE,52,8.0,8.0,72,0.00,,OVC050,0.00,VWS V14.01,2013-03-06 07:42:00,
2013-03-06 02:47:00,28.5,20.6,30.02,NNE,25,10.0,10.0,72,0.00,,OVC050,0.00,VWS V14.01,2013-03-06 07:47:00,
2013-03-06 02:52:00,28.5,20.6,30.02,NE,35,7.0,7.0,72,0.00,,OVC050,0.00,VWS V14.01,2013-03-06 07:52:00,
2013-03-06 02:57:00,28.5,20.6,30.02,North,10,2.0,2.0,72,0.00,,OVC050,0.00,VWS V14.01,2013-03-06 07:57:00,
2013-03-06 03:02:00,28.7,20.8,30.02,North,10,2.0,2.0,72,0.00,,OVC050,0.00,VWS V14.01,2013-03-06 08:02:00,
2013-03-06 03:08:00,28.7,21.1,30.02,NNE,25,0.0,0.0,73,0.00,,OVC050,0.00,VWS V14.01,2013-03-06 08:08:00,
2013-03-06 03:13:00,28.8,21.2,30.02,NNE,28,0.0,0.0,73,0.00,,OVC050,0.00,VWS V14.01,2013-03-06 08:13:00,
2013-03-06 03:18:00,28.8,21.2,30.02,NE,40,6.0,6.0,73,0.00,,OVC050,0.00,VWS V14.01,2013-03-06 08:18:00,
2013-03-06 03:23:00,28.8,21.2,30.02,NNE,24,5.0,5.0,73,0.00,,OVC038,0.00,VWS V14.01,2013-03-06 08:23:00,
2013-03-06 03:28:00,28.8,21.2,30.02,North,8,7.0,7.0,73,0.00,,OVC038,0.00,VWS V14.01,2013-03-06 08:28:00,
2013-03-06 03:33:00,28.8,21.2,30.02,NNE,14,5.0,5.0,73,0.00,,OVC038,0.00,VWS V14.01,2013-03-06 08:33:00,
2013-03-06 03:38:00,28.8,21.2,30.02,North,11,0.0,0.0,73,0.00,,OVC038,0.00,VWS V14.01,2013-03-06 08:38:00,
2013-03-06 03:43:00,28.8,21.2,30.02,North,4,0.0,0.0,73,0.00,,BKN034,0.00,VWS V14.01,2013-03-06 08:43:00,
2013-03-06 03:48:00,28.7,21.1,30.02,North,11,0.0,0.0,73,0.00,,BKN034,0.00,VWS V14.01,2013-03-06 08:48:00,
2013-03-06 03:53:00,28.7,21.1,30.02,North,11,0.0,0.0,73,0.00,,BKN034,0.00,VWS V14.01,2013-03-06 08:53:00,
2013-03-06 03:58:00,28.7,21.1,30.02,North,3,5.0,5.0,73,0.00,,BKN034,0.00,VWS V14.01,2013-03-06 08:58:00,
2013-03-06 04:03:00,28.7,21.1,30.02,NNE,23,2.0,6.0,73,0.00,,OVC034,0.00,VWS V14.01,2013-03-06 09:03:00,
2013-03-06 04:08:00,28.2,20.7,30.02,NNE,21,0.0,5.0,73,0.00,,OVC034,0.00,VWS V14.01,2013-03-06 09:08:00,
2013-03-06 04:14:00,28.2,20.7,30.02,NNE,18,0.0,3.0,73,0.00,,OVC034,0.00,VWS V14.01,2013-03-06 09:14:00,
2013-03-06 04:19:00,27.9,21.3,30.03,NNE,18,0.0,0.0,76,0.00,,OVC034,0.00,VWS V14.01,2013-03-06 09:19:00,
2013-03-06 04:24:00,27.9,21.3,30.03,NNE,23,0.0,0.0,76,0.00,,OVC032,0.00,VWS V14.01,2013-03-06 09:24:00,
2013-03-06 04:29:00,27.8,21.2,30.03,NE,48,3.0,3.0,76,0.00,,OVC032,0.00,VWS V14.01,2013-03-06 09:29:00,
2013-03-06 04:34:00,27.8,21.2,30.04,NNE,23,0.0,0.0,76,0.00,,OVC032,0.00,VWS V14.01,2013-03-06 09:34:00,
2013-03-06 04:39:00,27.6,21.0,30.04,NNE,21,0.0,0.0,76,0.00,,OVC032,0.00,VWS V14.01,2013-03-06 09:39:00,
2013-03-06 04:44:00,27.6,21.0,30.04,NNE,24,0.0,0.0,76,0.00,,OVC032,0.00,VWS V14.01,2013-03-06 09:44:00,
2013-03-06 04:49:00,27.6,21.0,30.04,NNE,17,0.0,1.0,76,0.00,,OVC032,0.00,VWS V14.01,2013-03-06 09:49:00,
2013-03-06 04:54:00,27.5,20.9,30.04,NW,313,0.0,5.0,76,0.00,,OVC032,0.00,VWS V14.01,2013-03-06 09:54:00,
2013-03-06 04:59:00,27.5,20.9,30.04,NNE,21,3.0,3.0,76,0.00,,OVC032,0.00,VWS V14.01,2013-03-06 09:59:00,
2013-03-06 05:04:00,27.5,20.9,30.05,NNE,30,0.0,0.0,76,0.00,,OVC032,0.00,VWS V14.01,2013-03-06 10:04:00,
2013-03-06 05:09:00,27.5,20.9,30.05,NE,55,0.0,0.0,76,0.00,,OVC032,0.00,VWS V14.01,2013-03-06 10:09:00,
2013-03-06 05:14:00,27.5,20.9,30.05,North,0,5.0,5.0,76,0.00,,OVC032,0.00,VWS V14.01,2013-03-06 10:14:00,
2013-03-06 05:19:00,27.5,20.9,30.05,NNE,18,0.0,0.0,76,0.00,,SCT065,0.00,VWS V14.01,2013-03-06 10:19:00,
2013-03-06 05:24:00,27.5,21.2,30.05,NNE,18,0.0,0.0,77,0.00,,SCT065,0.00,VWS V14.01,2013-03-06 10:24:00,
2013-03-06 05:29:00,27.5,21.2,30.05,NNE,21,0.0,0.0,77,0.00,,SCT065,0.00,VWS V14.01,2013-03-06 10:29:00,
2013-03-06 05:34:00,27.5,21.2,30.06,NE,38,0.0,0.0,77,0.00,,SCT065,0.00,VWS V14.01,2013-03-06 10:34:00,
2013-03-06 05:39:00,27.6,21.4,30.06,NNE,20,0.0,0.0,77,0.00,,OVC065,0.00,VWS V14.01,2013-03-06 10:39:00,
2013-03-06 05:44:00,27.5,21.2,30.06,NNE,21,0.0,0.0,77,0.00,,OVC065,0.00,VWS V14.01,2013-03-06 10:44:00,
2013-03-06 05:49:00,27.5,21.2,30.07,NNE,16,0.0,0.0,77,0.00,,OVC065,0.00,VWS V14.01,2013-03-06 10:49:00,
2013-03-06 05:54:00,27.6,21.4,30.07,NE,34,0.0,0.0,77,0.00,,OVC065,0.00,VWS V14.01,2013-03-06 10:54:00,
2013-03-06 06:00:00,27.6,21.4,30.07,NNE,16,0.0,0.0,77,0.00,,OVC065,0.00,VWS V14.01,2013-03-06 11:00:00,
2013-03-06 06:05:00,27.9,21.6,30.08,NNE,28,0.0,4.0,77,0.00,,OVC065,0.00,VWS V14.01,2013-03-06 11:05:00,
2013-03-06 06:10:00,28.1,21.8,30.08,NW,311,3.0,3.0,77,0.00,,OVC065,0.00,VWS V14.01,2013-03-06 11:10:00,
2013-03-06 06:15:00,28.2,21.9,30.08,NNE,30,3.0,4.0,77,0.00,,OVC065,0.00,VWS V14.01,2013-03-06 11:15:00,
2013-03-06 06:20:00,28.4,21.8,30.08,NNE,24,0.0,0.0,76,0.00,,OVC065,0.00,VWS V14.01,2013-03-06 11:20:00,
2013-03-06 06:25:00,28.4,21.8,30.08,North,4,0.0,0.0,76,0.00,,OVC065,0.00,VWS V14.01,2013-03-06 11:25:00,
2013-03-06 06:30:00,28.2,21.6,30.09,North,7,0.0,0.0,76,0.00,,OVC065,0.00,VWS V14.01,2013-03-06 11:30:00,
2013-03-06 06:35:00,28.1,21.5,30.09,North,7,0.0,0.0,76,0.00,,OVC065,0.00,VWS V14.01,2013-03-06 11:35:00,
2013-03-06 06:40:00,28.1,21.5,30.09,North,7,0.0,0.0,76,0.00,,OVC065,0.00,VWS V14.01,2013-03-06 11:40:00,
2013-03-06 06:45:00,28.1,21.8,30.09,NNE,13,0.0,0.0,77,0.00,,OVC065,0.00,VWS V14.01,2013-03-06 11:45:00,
2013-03-06 06:50:00,27.9,21.6,30.09,North,0,0.0,0.0,77,0.00,,OVC065,0.00,VWS V14.01,2013-03-06 11:50:00,
2013-03-06 06:55:00,27.9,21.6,30.09,North,359,0.0,0.0,77,0.00,,OVC065,0.00,VWS V14.01,2013-03-06 11:55:00,
2013-03-06 07:01:00,27.9,21.6,30.10,North,359,0.0,0.0,77,0.00,,OVC065,0.00,VWS V14.01,2013-03-06 12:01:00,
2013-03-06 07:06:00,27.9,21.6,30.10,North,359,0.0,0.0,77,0.00,,OVC065,0.00,VWS V14.01,2013-03-06 12:06:00,
2013-03-06 07:11:00,28.2,21.9,30.10,North,359,0.0,0.0,77,0.00,,OVC065,0.00,VWS V14.01,2013-03-06 12:11:00,
2013-03-06 07:16:00,28.4,22.1,30.10,North,8,0.0,0.0,77,0.00,,OVC065,0.00,VWS V14.01,2013-03-06 12:16:00,
2013-03-06 07:21:00,28.4,22.1,30.10,North,8,0.0,0.0,77,0.00,,OVC075,0.00,VWS V14.01,2013-03-06 12:21:00,
2013-03-06 07:26:00,28.7,21.8,30.10,NNE,16,0.0,0.0,75,0.00,,OVC075,0.00,VWS V14.01,2013-03-06 12:26:00,
2013-03-06 07:31:00,28.8,21.9,30.11,North,3,0.0,0.0,75,0.00,,OVC075,0.00,VWS V14.01,2013-03-06 12:31:00,
2013-03-06 07:36:00,29.1,22.2,30.11,North,3,0.0,0.0,75,0.00,,OVC075,0.00,VWS V14.01,2013-03-06 12:36:00,
2013-03-06 07:41:00,29.1,22.2,30.11,NNE,13,0.0,0.0,75,0.00,,OVC075,0.00,VWS V14.01,2013-03-06 12:41:00,
2013-03-06 07:46:00,29.1,22.2,30.11,North,3,0.0,0.0,75,0.00,,OVC075,0.00,VWS V14.01,2013-03-06 12:46:00,
2013-03-06 07:51:00,29.1,22.2,30.11,North,0,0.0,2.0,75,0.00,,OVC075,0.00,VWS V14.01,2013-03-06 12:51:00,
2013-03-06 07:56:00,29.3,22.4,30.11,NNE,28,2.0,2.0,75,0.00,,OVC075,0.00,VWS V14.01,2013-03-06 12:56:00,
2013-03-06 08:01:00,29.3,22.4,30.12,North,1,0.0,0.0,75,0.00,,OVC075,0.00,VWS V14.01,2013-03-06 13:01:00,
2013-03-06 08:06:00,29.4,22.1,30.12,North,1,0.0,0.0,74,0.00,,OVC075,0.00,VWS V14.01,2013-03-06 13:06:00,
2013-03-06 08:11:00,29.7,22.4,30.12,NNE,18,5.0,5.0,74,0.00,,OVC075,0.00,VWS V14.01,2013-03-06 13:11:00,
2013-03-06 08:16:00,29.8,22.5,30.11,NNE,27,0.0,0.0,74,0.00,,OVC075,0.00,VWS V14.01,2013-03-06 13:16:00,
2013-03-06 08:21:00,30.1,22.8,30.11,North,0,0.0,0.0,74,0.00,,OVC020,0.00,VWS V14.01,2013-03-06 13:21:00,
2013-03-06 08:26:00,30.3,23.0,30.11,NNE,16,0.0,0.0,74,0.00,,OVC020,0.00,VWS V14.01,2013-03-06 13:26:00,
2013-03-06 08:32:00,30.3,23.0,30.11,NNE,13,2.0,2.0,74,0.00,,OVC020,0.00,VWS V14.01,2013-03-06 13:32:00,
2013-03-06 08:37:00,30.4,23.1,30.11,North,0,2.0,2.0,74,0.00,,OVC020,0.00,VWS V14.01,2013-03-06 13:37:00,
2013-03-06 08:42:00,30.4,22.5,30.11,NNE,14,0.0,5.0,72,0.00,,OVC020,0.00,VWS V14.01,2013-03-06 13:42:00,
2013-03-06 08:47:00,30.7,22.8,30.11,NNE,24,5.0,5.0,72,0.00,,OVC020,0.00,VWS V14.01,2013-03-06 13:47:00,
2013-03-06 08:52:00,31.0,23.0,30.11,NNE,30,6.0,6.0,72,0.00,,OVC020,0.00,VWS V14.01,2013-03-06 13:52:00,
2013-03-06 08:57:00,31.8,23.1,30.11,NNE,28,2.0,2.0,70,0.00,,OVC020,0.00,VWS V14.01,2013-03-06 13:57:00,
2013-03-06 09:02:00,32.2,23.2,30.11,NNE,24,2.0,2.0,69,0.00,,BKN075,0.00,VWS V14.01,2013-03-06 14:02:00,
2013-03-06 09:07:00,32.4,23.4,30.11,North,8,0.0,0.0,69,0.00,,BKN075,0.00,VWS V14.01,2013-03-06 14:07:00,
2013-03-06 09:12:00,32.4,23.4,30.11,North,0,0.0,0.0,69,0.00,,BKN075,0.00,VWS V14.01,2013-03-06 14:12:00,
2013-03-06 09:17:00,32.5,23.1,30.11,NNE,31,4.0,4.0,68,0.00,,BKN075,0.00,VWS V14.01,2013-03-06 14:17:00,
2013-03-06 09:22:00,32.5,23.1,30.11,NE,34,0.0,0.0,68,0.00,,CLR,0.00,VWS V14.01,2013-03-06 14:22:00,
2013-03-06 09:27:00,32.5,23.1,30.11,NW,315,0.0,0.0,68,0.00,,CLR,0.00,VWS V14.01,2013-03-06 14:27:00,
2013-03-06 09:32:00,34.0,24.6,30.11,North,1,0.0,0.0,68,0.00,,CLR,0.00,VWS V14.01,2013-03-06 14:32:00,
2013-03-06 09:38:00,34.0,24.6,30.11,North,0,6.0,6.0,68,0.00,,CLR,0.00,VWS V14.01,2013-03-06 14:38:00,
2013-03-06 09:43:00,34.4,25.0,30.11,NNE,31,0.0,0.0,68,0.00,,CLR,0.00,VWS V14.01,2013-03-06 14:43:00,
2013-03-06 09:48:00,34.3,24.9,30.11,North,11,3.0,3.0,68,0.00,,CLR,0.00,VWS V14.01,2013-03-06 14:48:00,
2013-03-06 09:53:00,34.3,24.5,30.11,NNE,18,3.0,5.0,67,0.00,,CLR,0.00,VWS V14.01,2013-03-06 14:53:00,
2013-03-06 09:58:00,34.3,24.5,30.11,North,0,2.0,2.0,67,0.00,,CLR,0.00,VWS V14.01,2013-03-06 14:58:00,
2013-03-06 10:03:00,34.4,24.6,30.11,NNE,21,0.0,0.0,67,0.00,,BKN080,0.00,VWS V14.01,2013-03-06 15:03:00,
2013-03-06 10:08:00,35.2,25.0,30.11,NNW,332,5.0,7.0,66,0.00,,BKN080,0.00,VWS V14.01,2013-03-06 15:08:00,
2013-03-06 10:13:00,35.2,25.0,30.11,NNE,14,0.0,6.0,66,0.00,,BKN080,0.00,VWS V14.01,2013-03-06 15:13:00,
2013-03-06 10:18:00,35.3,25.1,30.12,North,353,0.0,2.0,66,0.00,,BKN080,0.00,VWS V14.01,2013-03-06 15:18:00,
2013-03-06 10:23:00,35.5,25.3,30.12,NNW,346,0.0,0.0,66,0.00,,SCT080,0.00,VWS V14.01,2013-03-06 15:23:00,
2013-03-06 10:28:00,35.8,25.6,30.12,NW,313,4.0,5.0,66,0.00,,SCT080,0.00,VWS V14.01,2013-03-06 15:28:00,
2013-03-06 10:33:00,35.8,25.6,30.12,North,356,0.0,0.0,66,0.00,,SCT080,0.00,VWS V14.01,2013-03-06 15:33:00,
2013-03-06 10:38:00,35.8,25.6,30.12,North,359,2.0,2.0,66,0.00,,SCT080,0.00,VWS V14.01,2013-03-06 15:38:00,
2013-03-06 10:43:00,35.8,24.1,30.12,NNW,344,6.0,6.0,62,0.00,,BKN080,0.00,VWS V14.01,2013-03-06 15:43:00,
2013-03-06 10:48:00,37.0,25.2,30.12,NNE,13,0.0,0.0,62,0.00,,BKN080,0.00,VWS V14.01,2013-03-06 15:48:00,
2013-03-06 10:53:00,36.3,24.9,30.12,NNW,336,0.0,0.0,63,0.00,,BKN080,0.00,VWS V14.01,2013-03-06 15:53:00,
2013-03-06 10:58:00,35.8,24.5,30.12,NNE,18,5.0,6.0,63,0.00,,BKN080,0.00,VWS V14.01,2013-03-06 15:58:00,
2013-03-06 11:03:00,35.6,24.3,30.12,NNE,25,0.0,2.0,63,0.00,,OVC080,0.00,VWS V14.01,2013-03-06 16:03:00,
2013-03-06 11:08:00,35.5,24.2,30.12,NNW,347,2.0,2.0,63,0.00,,OVC080,0.00,VWS V14.01,2013-03-06 16:08:00,
2013-03-06 11:13:00,35.5,24.2,30.12,NNE,25,0.0,2.0,63,0.00,,OVC080,0.00,VWS V14.01,2013-03-06 16:13:00,
2013-03-06 11:18:00,35.5,24.2,30.12,North,354,5.0,5.0,63,0.00,,OVC080,0.00,VWS V14.01,2013-03-06 16:18:00,
2013-03-06 11:23:00,35.2,24.6,30.12,NNE,14,6.0,7.0,65,0.00,,OVC080,0.00,VWS V14.01,2013-03-06 16:23:00,
2013-03-06 11:28:00,35.0,25.2,30.12,North,8,0.0,0.0,67,0.00,,OVC080,0.00,VWS V14.01,2013-03-06 16:28:00,
2013-03-06 11:33:00,35.8,25.9,30.12,North,0,2.0,7.0,67,0.00,,OVC080,0.00,VWS V14.01,2013-03-06 16:33:00,
2013-03-06 11:38:00,36.3,26.4,30.12,North,359,3.0,6.0,67,0.00,,OVC080,0.00,VWS V14.01,2013-03-06 16:38:00,
2013-03-06 11:43:00,36.2,26.3,30.12,North,354,2.0,5.0,67,0.00,,OVC080,0.00,VWS V14.01,2013-03-06 16:43:00,
2013-03-06 11:48:00,36.0,25.4,30.12,NNW,337,0.0,0.0,65,0.00,,OVC080,0.00,VWS V14.01,2013-03-06 16:48:00,
2013-03-06 11:54:00,36.2,25.6,30.12,NNE,16,0.0,0.0,65,0.00,,OVC080,0.00,VWS V14.01,2013-03-06 16:54:00,
2013-03-06 11:59:00,36.2,25.6,30.12,NW,313,6.0,6.0,65,0.00,,OVC080,0.00,VWS V14.01,2013-03-06 16:59:00,
2013-03-06 12:04:00,36.2,25.6,30.12,North,6,7.0,7.0,65,0.00,,OVC080,0.00,VWS V14.01,2013-03-06 17:04:00,
2013-03-06 12:09:00,36.2,25.2,30.12,North,359,0.0,0.0,64,0.00,,OVC080,0.00,VWS V14.01,2013-03-06 17:09:00,
2013-03-06 12:14:00,36.2,25.2,30.12,NNE,31,5.0,8.0,64,0.00,,OVC080,0.00,VWS V14.01,2013-03-06 17:14:00,
2013-03-06 12:19:00,35.9,24.9,30.12,NW,309,0.0,0.0,64,0.00,,OVC080,0.00,VWS V14.01,2013-03-06 17:19:00,
2013-03-06 12:24:00,36.0,25.0,30.12,NW,313,7.0,7.0,64,0.00,,OVC080,0.00,VWS V14.01,2013-03-06 17:24:00,
2013-03-06 12:29:00,36.2,25.2,30.12,NNW,344,0.0,0.0,64,0.00,,OVC080,0.00,VWS V14.01,2013-03-06 17:29:00,
2013-03-06 12:34:00,36.2,25.2,30.12,NNW,332,5.0,5.0,64,0.00,,OVC080,0.00,VWS V14.01,2013-03-06 17:34:00,
2013-03-06 12:39:00,36.3,25.3,30.12,NNW,333,0.0,3.0,64,0.00,,OVC021,0.00,VWS V14.01,2013-03-06 17:39:00,
2013-03-06 12:44:00,36.5,25.5,30.12,North,354,3.0,9.0,64,0.00,,OVC021,0.00,VWS V14.01,2013-03-06 17:44:00,
2013-03-06 12:49:00,36.6,25.6,30.12,NNW,344,7.0,7.0,64,0.00,,OVC021,0.00,VWS V14.01,2013-03-06 17:49:00,
2013-03-06 12:54:00,36.3,25.3,30.12,NNE,23,4.0,10.0,64,0.00,,OVC021,0.00,VWS V14.01,2013-03-06 17:54:00,
2013-03-06 12:59:00,36.2,25.2,30.12,North,0,0.0,2.0,64,0.00,,OVC021,0.00,VWS V14.01,2013-03-06 17:59:00,
2013-03-06 13:04:00,36.2,25.2,30.12,NNE,21,5.0,6.0,64,0.00,,OVC021,0.00,VWS V14.01,2013-03-06 18:04:00,
2013-03-06 13:09:00,36.2,25.2,30.12,NW,322,0.0,5.0,64,0.00,,OVC021,0.00,VWS V14.01,2013-03-06 18:09:00,
2013-03-06 13:15:00,36.2,25.2,30.12,North,359,6.0,7.0,64,0.00,,OVC021,0.00,VWS V14.01,2013-03-06 18:15:00,
2013-03-06 13:20:00,37.2,26.2,30.12,WNW,294,0.0,0.0,64,0.00,,OVC023,0.00,VWS V14.01,2013-03-06 18:20:00,
2013-03-06 13:25:00,37.5,26.5,30.12,NW,313,2.0,6.0,64,0.00,,OVC023,0.00,VWS V14.01,2013-03-06 18:25:00,
2013-03-06 13:30:00,37.3,25.5,30.12,NW,313,7.0,7.0,62,0.00,,OVC023,0.00,VWS V14.01,2013-03-06 18:30:00,
2013-03-06 13:35:00,37.2,25.4,30.12,NNE,20,5.0,8.0,62,0.00,,OVC023,0.00,VWS V14.01,2013-03-06 18:35:00,
2013-03-06 13:40:00,37.2,25.8,30.12,NNW,340,5.0,5.0,63,0.00,,OVC023,0.00,VWS V14.01,2013-03-06 18:40:00,
2013-03-06 13:45:00,36.5,25.1,30.12,NNE,18,0.0,5.0,63,0.00,,OVC023,0.00,VWS V14.01,2013-03-06 18:45:00,
2013-03-06 13:50:00,36.5,25.1,30.12,WNW,284,0.0,0.0,63,0.00,,OVC023,0.00,VWS V14.01,2013-03-06 18:50:00,
2013-03-06 13:55:00,35.9,24.5,30.12,North,350,6.0,6.0,63,0.00,,OVC023,0.00,VWS V14.01,2013-03-06 18:55:00,
2013-03-06 14:00:00,35.5,24.2,30.12,North,356,7.0,7.0,63,0.00,,OVC025,0.00,VWS V14.01,2013-03-06 19:00:00,
2013-03-06 14:05:00,35.5,25.3,30.12,North,359,7.0,7.0,66,0.00,,OVC025,0.00,VWS V14.01,2013-03-06 19:05:00,
2013-03-06 14:10:00,35.8,25.6,30.12,NNW,335,7.0,7.0,66,0.00,,OVC025,0.00,VWS V14.01,2013-03-06 19:10:00,
2013-03-06 14:15:00,35.9,25.7,30.12,North,359,1.0,1.0,66,0.00,,OVC025,0.00,VWS V14.01,2013-03-06 19:15:00,
2013-03-06 14:20:00,35.5,25.3,30.12,NW,311,5.0,5.0,66,0.00,,OVC025,0.00,VWS V14.01,2013-03-06 19:20:00,
2013-03-06 14:25:00,35.5,25.3,30.12,NNW,332,0.0,0.0,66,0.00,,OVC025,0.00,VWS V14.01,2013-03-06 19:25:00,
2013-03-06 14:30:00,35.5,25.3,30.11,NNW,329,2.0,2.0,66,0.00,,OVC025,0.00,VWS V14.01,2013-03-06 19:30:00,
2013-03-06 14:35:00,35.6,25.4,30.11,NNW,330,0.0,0.0,66,0.00,,OVC025,0.00,VWS V14.01,2013-03-06 19:35:00,
2013-03-06 14:40:00,35.6,25.4,30.11,NW,318,7.0,7.0,66,0.00,,OVC025,0.00,VWS V14.01,2013-03-06 19:40:00,
2013-03-06 14:45:00,35.8,25.6,30.11,NW,309,2.0,2.0,66,0.00,,OVC025,0.00,VWS V14.01,2013-03-06 19:45:00,
2013-03-06 14:51:00,35.8,25.6,30.11,NNW,333,0.0,0.0,66,0.00,,OVC025,0.00,VWS V14.01,2013-03-06 19:51:00,
2013-03-06 14:56:00,35.8,25.6,30.11,North,4,0.0,0.0,66,0.00,,OVC025,0.00,VWS V14.01,2013-03-06 19:56:00,
2013-03-06 15:01:00,35.6,25.4,30.12,NNE,32,5.0,7.0,66,0.00,,OVC025,0.00,VWS V14.01,2013-03-06 20:01:00,
2013-03-06 15:06:00,35.3,25.1,30.12,NNW,330,0.0,1.0,66,0.00,,OVC025,0.00,VWS V14.01,2013-03-06 20:06:00,
2013-03-06 15:11:00,35.0,24.8,30.12,North,359,2.0,5.0,66,0.00,,OVC025,0.00,VWS V14.01,2013-03-06 20:11:00,
2013-03-06 15:16:00,34.9,24.7,30.12,NW,315,0.0,0.0,66,0.00,,OVC025,0.00,VWS V14.01,2013-03-06 20:16:00,
2013-03-06 15:21:00,34.7,24.5,30.12,North,8,4.0,4.0,66,0.00,,OVC025,0.00,VWS V14.01,2013-03-06 20:21:00,
2013-03-06 15:26:00,34.6,24.4,30.12,NNE,28,0.0,0.0,66,0.00,,OVC025,0.00,VWS V14.01,2013-03-06 20:26:00,
2013-03-06 15:31:00,34.6,24.4,30.12,NW,326,2.0,2.0,66,0.00,,OVC025,0.00,VWS V14.01,2013-03-06 20:31:00,
2013-03-06 15:36:00,34.6,24.4,30.12,North,6,4.0,4.0,66,0.00,,OVC025,0.00,VWS V14.01,2013-03-06 20:36:00,
2013-03-06 15:41:00,34.4,24.2,30.12,NNE,20,5.0,5.0,66,0.00,,OVC027,0.00,VWS V14.01,2013-03-06 20:41:00,
2013-03-06 15:46:00,34.7,24.5,30.13,NW,323,0.0,0.0,66,0.00,,OVC027,0.00,VWS V14.01,2013-03-06 20:46:00,
2013-03-06 15:51:00,34.9,25.1,30.13,North,11,2.0,2.0,67,0.00,,OVC027,0.00,VWS V14.01,2013-03-06 20:51:00,
2013-03-06 15:56:00,34.9,25.1,30.13,North,7,0.0,0.0,67,0.00,,OVC027,0.00,VWS V14.01,2013-03-06 20:56:00,
2013-03-06 16:02:00,34.9,25.1,30.12,NNE,21,0.0,3.0,67,0.00,,OVC027,0.00,VWS V14.01,2013-03-06 21:02:00,
2013-03-06 16:07:00,34.3,24.9,30.12,North,4,2.0,3.0,68,0.00,,OVC027,0.00,VWS V14.01,2013-03-06 21:07:00,
2013-03-06 16:12:00,34.4,25.0,30.12,North,353,6.0,7.0,68,0.00,,OVC027,0.00,VWS V14.01,2013-03-06 21:12:00,
2013-03-06 16:17:00,34.4,25.0,30.13,North,359,0.0,0.0,68,0.00,,OVC027,0.00,VWS V14.01,2013-03-06 21:17:00,
2013-03-06 16:22:00,34.3,24.9,30.13,NE,37,7.0,7.0,68,0.00,,OVC027,0.00,VWS V14.01,2013-03-06 21:22:00,
2013-03-06 16:27:00,34.3,24.9,30.13,North,359,2.0,5.0,68,0.00,,OVC027,0.00,VWS V14.01,2013-03-06 21:27:00,
2013-03-06 16:32:00,34.0,24.6,30.12,North,352,0.0,0.0,68,0.00,,OVC027,0.00,VWS V14.01,2013-03-06 21:32:00,
2013-03-06 16:37:00,34.3,24.9,30.12,NNW,343,0.0,0.0,68,0.00,,OVC027,0.00,VWS V14.01,2013-03-06 21:37:00,
2013-03-06 16:42:00,34.4,25.0,30.12,North,359,0.0,0.0,68,0.00,,OVC075,0.00,VWS V14.01,2013-03-06 21:42:00,
2013-03-06 16:47:00,34.3,24.9,30.13,NNW,335,2.0,2.0,68,0.00,,OVC075,0.00,VWS V14.01,2013-03-06 21:47:00,
2013-03-06 16:52:00,34.0,24.6,30.13,NNE,21,6.0,6.0,68,0.00,,OVC075,0.00,VWS V14.01,2013-03-06 21:52:00,
2013-03-06 16:57:00,33.8,24.4,30.13,North,0,0.0,0.0,68,0.00,,OVC075,0.00,VWS V14.01,2013-03-06 21:57:00,
2013-03-06 17:02:00,33.7,24.3,30.12,NW,323,0.0,0.0,68,0.00,,BKN075,0.00,VWS V14.01,2013-03-06 22:02:00,
2013-03-06 17:07:00,33.5,24.1,30.12,NNW,346,0.0,2.0,68,0.00,,BKN075,0.00,VWS V14.01,2013-03-06 22:07:00,
2013-03-06 17:12:00,33.5,24.1,30.12,NNW,330,5.0,5.0,68,0.00,,BKN075,0.00,VWS V14.01,2013-03-06 22:12:00,
2013-03-06 17:18:00,33.4,24.0,30.12,North,349,5.0,10.0,68,0.00,,BKN075,0.00,VWS V14.01,2013-03-06 22:18:00,
2013-03-06 17:23:00,33.7,25.0,30.12,North,0,0.0,6.0,70,0.00,,BKN060,0.00,VWS V14.01,2013-03-06 22:23:00,
2013-03-06 17:28:00,33.4,24.7,30.12,NNW,330,0.0,0.0,70,0.00,,BKN060,0.00,VWS V14.01,2013-03-06 22:28:00,
2013-03-06 17:33:00,33.5,24.8,30.13,North,0,0.0,0.0,70,0.00,,BKN060,0.00,VWS V14.01,2013-03-06 22:33:00,
2013-03-06 17:38:00,33.4,24.7,30.13,NNW,346,0.0,0.0,70,0.00,,BKN060,0.00,VWS V14.01,2013-03-06 22:38:00,
2013-03-06 17:43:00,33.4,24.7,30.13,North,359,0.0,4.0,70,0.00,,OVC120,0.00,VWS V14.01,2013-03-06 22:43:00,
2013-03-06 17:48:00,33.1,25.4,30.13,North,359,0.0,0.0,73,0.00,,OVC120,0.00,VWS V14.01,2013-03-06 22:48:00,
2013-03-06 17:53:00,32.9,25.9,30.13,NW,316,0.0,0.0,75,0.00,,OVC120,0.00,VWS V14.01,2013-03-06 22:53:00,
2013-03-06 17:58:00,32.9,26.2,30.13,NW,311,0.0,0.0,76,0.00,,OVC120,0.00,VWS V14.01,2013-03-06 22:58:00,
2013-03-06 18:03:00,33.1,26.4,30.14,North,359,0.0,0.0,76,0.00,,OVC120,0.00,VWS V14.01,2013-03-06 23:03:00,
2013-03-06 18:08:00,33.2,26.5,30.14,NNW,336,0.0,0.0,76,0.00,,OVC120,0.00,VWS V14.01,2013-03-06 23:08:00,
2013-03-06 18:13:00,33.2,26.8,30.14,NW,325,3.0,6.0,77,0.00,,OVC120,0.00,VWS V14.01,2013-03-06 23:13:00,
2013-03-06 18:18:00,33.2,26.8,30.14,NNW,340,0.0,0.0,77,0.00,,OVC120,0.00,VWS V14.01,2013-03-06 23:18:00,
2013-03-06 18:23:00,33.2,26.8,30.14,NNW,347,0.0,0.0,77,0.00,,OVC120,0.00,VWS V14.01,2013-03-06 23:23:00,
2013-03-06 18:28:00,33.1,27.0,30.14,North,0,0.0,0.0,78,0.00,,OVC120,0.00,VWS V14.01,2013-03-06 23:28:00,
2013-03-06 18:33:00,32.8,26.7,30.14,North,354,0.0,0.0,78,0.00,,OVC120,0.00,VWS V14.01,2013-03-06 23:33:00,
2013-03-06 18:38:00,32.9,26.8,30.14,North,0,0.0,0.0,78,0.00,,OVC120,0.00,VWS V14.01,2013-03-06 23:38:00,
2013-03-06 18:43:00,32.5,27.0,30.14,North,352,0.0,0.0,80,0.00,,OVC060,0.00,VWS V14.01,2013-03-06 23:43:00,
2013-03-06 18:48:00,32.4,26.9,30.14,North,6,0.0,1.0,80,0.00,,OVC060,0.00,VWS V14.01,2013-03-06 23:48:00,
2013-03-06 18:53:00,32.4,26.9,30.14,NW,323,0.0,0.0,80,0.00,,OVC060,0.00,VWS V14.01,2013-03-06 23:53:00,
2013-03-06 18:58:00,32.4,26.9,30.14,North,354,0.0,0.0,80,0.00,,OVC060,0.00,VWS V14.01,2013-03-06 23:58:00,
2013-03-06 19:04:00,32.2,26.7,30.15,NW,319,0.0,0.0,80,0.00,,,0.00,VWS V14.01,2013-03-07 00:04:00,
2013-03-06 19:09:00,32.4,26.9,30.15,NW,304,1.0,1.0,80,0.00,,,0.00,VWS V14.01,2013-03-07 00:09:00,
2013-03-06 19:14:00,32.2,27.9,30.15,NW,325,2.0,2.0,84,0.00,,,0.00,VWS V14.01,2013-03-07 00:14:00,
2013-03-06 19:19:00,32.2,27.9,30.15,NNE,16,6.0,6.0,84,0.00,,,0.00,VWS V14.01,2013-03-07 00:19:00,
2013-03-06 19:24:00,32.2,27.9,30.15,North,359,1.0,5.0,84,0.00,,,0.00,VWS V14.01,2013-03-07 00:24:00,
2013-03-06 19:29:00,32.1,27.8,30.15,North,0,0.0,0.0,84,0.00,,,0.00,VWS V14.01,2013-03-07 00:29:00,
2013-03-06 19:34:00,32.2,27.9,30.15,NNW,335,0.0,2.0,84,0.00,,,0.00,VWS V14.01,2013-03-07 00:34:00,
2013-03-06 19:39:00,32.2,27.9,30.15,NW,322,0.0,2.0,84,0.00,,,0.00,VWS V14.01,2013-03-07 00:39:00,
2013-03-06 19:44:00,32.2,27.9,30.15,North,359,0.0,0.0,84,0.00,,,0.00,VWS V14.01,2013-03-07 00:44:00,
2013-03-06 19:49:00,32.1,27.8,30.16,NNE,17,0.0,8.0,84,0.00,,,0.00,VWS V14.01,2013-03-07 00:49:00,
2013-03-06 19:54:00,31.9,27.6,30.16,NNW,333,0.0,0.0,84,0.00,,,0.00,VWS V14.01,2013-03-07 00:54:00,
2013-03-06 19:59:00,31.9,27.6,30.16,North,350,0.0,0.0,84,0.00,,,0.00,VWS V14.01,2013-03-07 00:59:00,
2013-03-06 20:05:00,31.9,27.6,30.16,NNW,347,3.0,3.0,84,0.00,,,0.00,VWS V14.01,2013-03-07 01:05:00,
2013-03-06 20:10:00,31.9,27.6,30.16,NW,316,0.0,0.0,84,0.00,,,0.00,VWS V14.01,2013-03-07 01:10:00,
2013-03-06 20:15:00,31.6,27.3,30.16,NW,308,3.0,3.0,84,0.00,,,0.00,VWS V14.01,2013-03-07 01:15:00,
2013-03-06 20:20:00,31.6,27.3,30.15,NW,308,3.0,3.0,84,0.00,,,0.00,VWS V14.01,2013-03-07 01:20:00,
2013-03-06 20:25:00,31.6,27.3,30.15,North,6,10.0,10.0,84,0.00,,,0.00,VWS V14.01,2013-03-07 01:25:00,
2013-03-06 20:30:00,31.3,27.0,30.15,North,0,0.0,0.0,84,0.00,,,0.00,VWS V14.01,2013-03-07 01:30:00,
2013-03-06 20:35:00,31.3,27.0,30.16,NNW,335,7.0,7.0,84,0.00,,,0.00,VWS V14.01,2013-03-07 01:35:00,
2013-03-06 20:40:00,31.3,27.0,30.16,North,0,6.0,6.0,84,0.00,,,0.00,VWS V14.01,2013-03-07 01:40:00,
2013-03-06 20:45:00,31.3,27.0,30.16,WNW,302,0.0,0.0,84,0.00,,,0.00,VWS V14.01,2013-03-07 01:45:00,
2013-03-06 20:50:00,31.3,27.0,30.16,North,350,0.0,0.0,84,0.00,,,0.00,VWS V14.01,2013-03-07 01:50:00,
2013-03-06 20:55:00,30.4,26.1,30.16,North,0,5.0,5.0,84,0.00,,,0.00,VWS V14.01,2013-03-07 01:55:00,
2013-03-06 21:00:00,30.4,26.1,30.17,North,357,2.0,2.0,84,0.00,,,0.00,VWS V14.01,2013-03-07 02:00:00,
2013-03-06 21:05:00,30.3,26.1,30.17,North,349,0.0,3.0,84,0.01,,,0.01,VWS V14.01,2013-03-07 02:05:00,
2013-03-06 21:10:00,30.3,26.3,30.17,WNW,291,5.0,5.0,85,0.01,,,0.01,VWS V14.01,2013-03-07 02:10:00,
2013-03-06 21:15:00,30.0,26.0,30.17,NW,322,7.0,7.0,85,0.01,,,0.01,VWS V14.01,2013-03-07 02:15:00,
2013-03-06 21:21:00,30.0,26.0,30.17,North,359,8.0,8.0,85,0.01,,,0.01,VWS V14.01,2013-03-07 02:21:00,
2013-03-06 21:26:00,30.0,26.0,30.17,North,359,2.0,10.0,85,0.01,,,0.01,VWS V14.01,2013-03-07 02:26:00,
2013-03-06 21:31:00,30.0,26.0,30.17,NW,320,0.0,0.0,85,0.01,,,0.01,VWS V14.01,2013-03-07 02:31:00,
2013-03-06 21:36:00,30.0,26.0,30.17,North,350,7.0,7.0,85,0.01,,,0.01,VWS V14.01,2013-03-07 02:36:00,
2013-03-06 21:41:00,30.0,26.3,30.17,North,0,7.0,8.0,86,0.01,,,0.01,VWS V14.01,2013-03-07 02:41:00,
2013-03-06 21:46:00,30.0,26.3,30.17,North,359,3.0,3.0,86,0.01,,,0.01,VWS V14.01,2013-03-07 02:46:00,
2013-03-06 21:51:00,28.8,25.1,30.17,North,353,2.0,9.0,86,0.01,,,0.01,VWS V14.01,2013-03-07 02:51:00,
2013-03-06 21:56:00,28.8,25.1,30.17,WNW,299,2.0,3.0,86,0.01,,,0.01,VWS V14.01,2013-03-07 02:56:00,
2013-03-06 22:01:00,29.0,25.4,30.18,North,3,4.0,4.0,86,0.01,,,0.01,VWS V14.01,2013-03-07 03:01:00,
2013-03-06 22:06:00,29.0,25.4,30.18,NNW,340,5.0,5.0,86,0.00,,,0.01,VWS V14.01,2013-03-07 03:06:00,
2013-03-06 22:11:00,28.8,24.6,30.18,North,359,2.0,9.0,84,0.00,,,0.01,VWS V14.01,2013-03-07 03:11:00,
2013-03-06 22:16:00,28.8,24.3,30.18,NW,316,1.0,1.0,83,0.00,,,0.01,VWS V14.01,2013-03-07 03:16:00,
2013-03-06 22:21:00,28.8,24.3,30.18,North,353,2.0,2.0,83,0.00,,,0.01,VWS V14.01,2013-03-07 03:21:00,
2013-03-06 22:26:00,27.9,23.4,30.18,NW,325,0.0,0.0,83,0.00,,,0.01,VWS V14.01,2013-03-07 03:26:00,
2013-03-06 22:31:00,27.9,23.4,30.18,NW,326,3.0,3.0,83,0.00,,,0.01,VWS V14.01,2013-03-07 03:31:00,
2013-03-06 22:36:00,27.9,23.4,30.18,North,8,0.0,1.0,83,0.00,,,0.01,VWS V14.01,2013-03-07 03:36:00,
2013-03-06 22:41:00,27.9,23.4,30.18,North,349,0.0,0.0,83,0.00,,OVC019,0.01,VWS V14.01,2013-03-07 03:41:00,
2013-03-06 22:46:00,27.9,23.4,30.18,North,359,1.0,1.0,83,0.00,,OVC019,0.01,VWS V14.01,2013-03-07 03:46:00,
2013-03-06 22:51:00,27.9,23.4,30.18,NNW,339,3.0,3.0,83,0.00,,OVC019,0.01,VWS V14.01,2013-03-07 03:51:00,
2013-03-06 22:56:00,27.8,23.3,30.18,NNW,333,10.0,10.0,83,0.00,,OVC019,0.01,VWS V14.01,2013-03-07 03:56:00,
2013-03-06 23:01:00,27.8,23.3,30.18,North,7,2.0,2.0,83,0.00,,OVC023,0.01,VWS V14.01,2013-03-07 04:01:00,
2013-03-06 23:07:00,27.8,23.3,30.18,NNE,25,8.0,8.0,83,0.00,,OVC023,0.01,VWS V14.01,2013-03-07 04:07:00,
2013-03-06 23:12:00,27.5,23.0,30.18,NNW,347,10.0,10.0,83,0.00,,OVC023,0.01,VWS V14.01,2013-03-07 04:12:00,
2013-03-06 23:17:00,27.3,22.8,30.19,NW,318,0.0,0.0,83,0.00,,OVC023,0.01,VWS V14.01,2013-03-07 04:17:00,
2013-03-06 23:22:00,27.3,22.8,30.19,NW,315,0.0,6.0,83,0.00,,,0.01,VWS V14.01,2013-03-07 04:22:00,
2013-03-06 23:27:00,27.3,22.8,30.19,NNE,31,6.0,6.0,83,0.00,,,0.01,VWS V14.01,2013-03-07 04:27:00,
2013-03-06 23:32:00,27.3,21.1,30.19,NNW,342,0.0,5.0,77,0.00,,,0.01,VWS V14.01,2013-03-07 04:32:00,
2013-03-06 23:37:00,27.3,21.1,30.19,NW,309,7.0,7.0,77,0.00,,,0.01,VWS V14.01,2013-03-07 04:37:00,
2013-03-06 23:42:00,27.3,20.8,30.19,NNE,27,5.0,5.0,76,0.00,,OVC026,0.01,VWS V14.01,2013-03-07 04:42:00,
2013-03-06 23:47:00,27.3,20.8,30.20,NNW,342,5.0,5.0,76,0.00,,OVC026,0.01,VWS V14.01,2013-03-07 04:47:00,
2013-03-06 23:52:00,27.2,20.6,30.20,North,359,0.0,0.0,76,0.00,,OVC026,0.01,VWS V14.01,2013-03-07 04:52:00,
2013-03-06 23:57:00,27.0,20.5,30.20,NW,304,5.0,5.0,76,0.00,,OVC026,0.01,VWS V14.01,2013-03-07 04:57:00,